Regional Weather Roundup
Issued by NWS

Home | Current Version | Previous Version | Graphics & Text | Print | Product List | Glossary On
Versions: 1 2 3 4 5 6 7 8 9 10 11 12 13 14 15 16 17 18 19 20 21 22 23 24 25 26 27 28 29 30 31 32 33 34 35 36 37 38 39 40 41 42 43 44 45 46 47 48 49 50
000
ASUS43 KMPX 151301
RWRMN
WEATHER ROUNDUP FOR MINNESOTA
NATIONAL WEATHER SERVICE TWIN CITIES/CHANHASSEN MN
800 AM CDT MON SEP 15 2014


NOTE: "FAIR" INDICATES FEW OR NO CLOUDS BELOW 12,000 FEET WITH NO
SIGNIFICANT WEATHER AND/OR OBSTRUCTIONS TO VISIBILITY. N/A MEANS
CURRENT SKY AND/OR WEATHER CONDITIONS ARE NOT AVAILABLE.

MNZ060>063-068>070-151400-
   Twin Cities Metro

CITY           SKY/WX    TMP DP  RH WIND       PRES   REMARKS
TWIN CITIES    LGT RAIN  50  47  89 NW5       30.20R
ST PAUL        LGT RAIN  50  48  93 CALM      30.21R
CRYSTAL        LGT RAIN  51  47  86 W3        30.19R
BLAINE         CLOUDY    52  50  93 CALM      30.20R
LAKEVILLE      LGT RAIN  48  48 100 NW6       30.20F
EDEN PRAIRIE   LGT RAIN  51  49  92 CALM      30.19S
SOUTH ST PAUL  LGT RAIN  51  48  90 CALM      30.20S
LAKE ELMO      LGT RAIN  50  46  87 CALM      30.21R
$$
MNZ001>005-007-008-013>017-022>024-027-028-151400-
   Northwest Minnesota

CITY           SKY/WX    TMP DP  RH WIND       PRES   REMARKS
BEMIDJI        CLEAR     38  37  97 W3        30.21S
HALLOCK        CLOUDY    39  37  93 S5        30.19S
ROSEAU         CLEAR     39  36  87 SW6       30.18S
WARROAD        CLEAR     37  34  87 SW5       30.18S
THIEF RVR FALL CLEAR     36  34  93 CALM      30.21S
CROOKSTON      FOG       36  36 100 S3        30.23S VSB 3/4
FOSSTON        CLEAR     36  34  93 CALM      30.23S
DETROIT LAKES  CLOUDY    45  43  93 NW5       30.24R
MOORHEAD       CLEAR     43  43 100 CALM      30.24S
PARK RAPIDS    CLOUDY    43  41  93 W6        30.21R
MAHNOMEN       PTSUNNY   40  39  96 CALM      30.23R
$$
MNZ006-009>011-018-025>026-151400-
   North Central Minnesota

CITY           SKY/WX    TMP DP  RH WIND       PRES   REMARKS
BAUDETTE       CLEAR     40  37  89 W3        30.18R
FLAG ISLAND    PTCLDY    45  37  76 W13       30.14F
INTL FALLS     CLOUDY    42  41  96 CALM      30.16R
WASKISH        CLOUDY    46  39  76 CALM      30.19R
BIG FORK       SUNNY     36  36 100 CALM      30.19R
LONGVILLE      CLOUDY    45  43  93 CALM      30.20R
GRAND RAPIDS   SUNNY     41  39  93 NW5       30.19R
CRANE LAKE     PTSUNNY   37  37 100 CALM      30.16S
ORR            MOSUNNY   41  37  87 NW5       30.14R
COOK           SUNNY     37  36  93 CALM      30.17R FOG
WALKER         CLOUDY    42  40  92 CALM      30.21R
$$
MNZ012-019>021-037-151400-
   Northeast Minnesota

CITY           SKY/WX    TMP DP  RH WIND       PRES   REMARKS
DULUTH         MOSUNNY   44  40  85 NW10      30.16R
ELY            CLOUDY    43  43 100 NW3       30.14R
HIBBING        SUNNY     35  34  96 W3        30.18R
EVELETH        SUNNY     41  41 100 W3        30.17R
DULUTH HARBOR  CLOUDY    45  43  93 SW7       30.19R
TWO HARBORS    SUNNY     45  39  81 NW6       30.13R
SILVER BAY     MOSUNNY   39  39 100 CALM      30.12R
GRAND MARAIS     N/A     50  45  83 W3        30.11R
G MARAIS ARPRT SUNNY     45  39  81 W3        30.10R
$$
MNZ029>031-032-039>041-046>048-054>057-064-151400-
   West Central Minnesota

CITY           SKY/WX    TMP DP  RH WIND       PRES   REMARKS
FERGUS FALLS   MOCLDY    43  41  93 W3        30.24R
WHEATON        CLOUDY    45  43  93 CALM      30.26R
MORRIS         CLOUDY    45  43  93 NW5       30.22S
ALEXANDRIA     CLOUDY    48  45  89 CALM      30.23R
ELBOW LAKE     CLOUDY    42  41  97 CALM      30.23R
WADENA         CLOUDY    43  43 100 CALM      30.21S
GLENWOOD       PTCLDY    45  43  93 NW5       30.22S
APPLETON       PTCLDY    46  45  93 CALM      30.23R
BENSON           N/A     43  43 100 N3        30.23R FOG
ORTONVILLE     PTCLDY    46  45  93 NW3       30.24R
MADISON        PTCLDY    48  46  93 W5        30.24R
WILLMAR        FAIR      46  45  93 NW3       30.23S
$$
MNZ033>034-036-042>043-049>051-058-059-151400-
   Central Minnesota

CITY           SKY/WX    TMP DP  RH WIND       PRES   REMARKS
ST CLOUD       PTSUNNY   48  44  86 N5        30.21R
SAUK CENTRE    FAIR      40  40  99 CALM      30.22R FOG
PAYNESVILLE    PTSUNNY   41  41 100 CALM      30.22R
AITKIN         CLOUDY    46  39  76 CALM      30.18S
PINE RIVER     CLOUDY    41  41 100 CALM      30.23S
BRAINERD       CLOUDY    45  42  89 N5        30.21R
STAPLES        CLOUDY    43  43 100 CALM      30.21S
LONG PRAIRIE   FAIR      43  41  93 W5        30.22R
LITTLE FALLS   CLOUDY    41  39  93 CALM      30.21S FOG
LITCHFIELD       N/A     48  48 100 CALM      30.21S
BUFFALO        CLOUDY    49  46  90 CALM      30.21S
MAPLE LAKE     CLOUDY    48  47  95 NW3       30.21S
$$
MNZ037-044-045-052-053-151400-
   East Central Minnesota

CITY           SKY/WX    TMP DP  RH WIND       PRES   REMARKS
PRINCETON      CLOUDY    46  45  93 CALM      30.20S
MORA           PTSUNNY   43  41  93 CALM      30.22R
CAMBRIDGE      CLOUDY    48  39  71 CALM      30.18S
RUSH CITY      CLOUDY    45  44  96 CALM      30.20S
MOOSE LAKE     CLOUDY    43  43 100 NW6       30.17S
HINCKLEY       FAIR      45  43  93 CALM      30.19R
CLOQUET        PTSUNNY   43  39  87 W7        30.18R
MCGREGOR       CLOUDY    41  41 100 CALM      30.20S
$$
MNZ071>073-080-081-089-090-097-098-151400-
   Southwest Minnesota

CITY           SKY/WX    TMP DP  RH WIND       PRES   REMARKS
MONTEVIDEO     MOCLDY    46  45  93 NW5       30.24R
GRANITE FALLS  CLOUDY    46  46  98 W3        30.24R FOG
CANBY          MOCLDY    46  44  95 W3        30.25R
MARSHALL       CLOUDY    48  43  81 NW6       30.22R
REDWOOD FALLS  CLOUDY    49  48  97 W5        30.22R
OLIVIA         CLOUDY    50  46  87 NW3       30.21R
PIPESTONE      CLOUDY    46  45  93 N3        30.23R
WINDOM         CLOUDY    48  46  93 NW3       30.21F
WORTHINGTON    CLOUDY    48  46  93 N3        30.22F
JACKSON        LGT RAIN  48  46  93 CALM      30.22S
TRACY          CLOUDY    48  47  96 CALM      30.23R
SLAYTON        CLOUDY    46  46  99 CALM      30.23S
$$
MNZ065>067-074>077-082>085-091>093-151400-
   South Central Minnesota

CITY           SKY/WX    TMP DP  RH WIND       PRES   REMARKS
MANKATO        CLOUDY    48  45  87 N7        30.20F
NEW ULM        CLOUDY    48  48 100 CALM      30.21R
ST JAMES       LGT RAIN  50  48  93 CALM      30.22S
FAIRMONT       CLOUDY    48  45  87 NW7       30.21R
GLENCOE        DRIZZLE   50  47  88 CALM      30.20S
FARIBAULT      RAIN      52  46  82 CALM      30.21R
OWATONNA       RAIN      50  46  87 N6        30.20R
WASECA         LGT RAIN  48  45  87 NW5       30.22S
ALBERT LEA     LGT RAIN  50  48  93 N6        30.19R
$$
MNZ078>079-086>088-094>096-151400-
   Southeast Minnesota

CITY           SKY/WX    TMP DP  RH WIND       PRES   REMARKS
ROCHESTER      RAIN      50  47  89 N8        30.18R FOG
RED WING       RAIN      52  48  87 W5        30.19R
STANTON        RAIN      51  48  92 NW3       30.19S
DODGE CENTER   RAIN      48  48 100 N5        30.20R
WINONA         DRIZZLE   52  50  93 CALM      30.16F
AUSTIN         DRIZZLE   48  48 100 N6        30.17R
PRESTON        RAIN      47  48 100 CALM      30.16F
$$
ABBREVIATIONS USED IN REMARKS
   TC - TEMPERATURES IN CELSIUS
  WCI - WIND CHILL INDEX
   HX - HEAT INDEX
  VSB - VISIBILITY
$$



USA.gov is the U.S. government's official web portal to all federal, state and local government web resources and services.